FW8756 Weather Reports


Display with metric or nautical units.
time (UTC)temp
F
wind
direction
speed
MPH
gust
MPH
rain 1hr
in
rain 24hr
in
rain mn
in
humidity
%
barometer
mb
20260903034248 78 133 0.0 0.0 0.00 0.00 0.00 92 1013.3
20260903033743 78 142 0.0 0.0 0.00 0.00 0.00 92 1013.3
20260903033238 78 119 0.0 1.0 0.00 0.00 0.00 92 1013.0
20260903032732 78 140 4.0 5.0 0.00 0.00 0.00 92 1013.1
20260903032228 78 152 0.0 1.0 0.00 0.00 0.00 92 1012.8
20260903031724 78 143 0.0 0.0 0.00 0.00 0.00 92 1012.8
20260903031223 78 140 0.0 0.0 0.00 0.00 0.00 92 1012.6
20260903030719 78 142 0.0 0.0 0.00 0.00 0.00 92 1013.0
20260903030215 78 144 0.0 0.0 0.00 0.00 0.00 92 1012.7
20260903025710 78 137 0.0 0.0 0.00 0.00 0.00 92 1012.8
20260903025205 78 131 0.0 0.0 0.00 0.00 0.00 92 1012.7
20260903024700 78 116 0.0 1.0 0.00 0.00 0.00 92 1012.8
20260903024158 78 154 0.0 0.0 0.00 0.00 0.00 92 1012.6
20260903023655 78 138 0.0 0.0 0.00 0.00 0.00 92 1012.5
20260903023150 78 177 0.0 0.0 0.00 0.00 0.00 92 1012.6
20260903022649 78 141 0.0 0.0 0.00 0.00 0.00 92 1012.3
20260903022144 78 134 0.0 0.0 0.00 0.00 0.00 92 1012.1
20260903021644 78 147 0.0 0.0 0.00 0.00 0.00 92 1011.9
20260903021138 78 163 0.0 1.0 0.00 0.00 0.00 92 1011.9
20260903020634 78 133 0.0 1.0 0.00 0.00 0.00 91 1011.9
20260903020134 78 147 1.0 1.0 0.00 0.00 0.00 91 1012.0
20260903015629 78 153 0.0 0.0 0.00 0.00 0.00 91 1012.1
20260903015124 78 142 1.0 1.0 0.00 0.00 0.00 91 1012.0
20260903014619 78 148 1.0 2.0 0.00 0.00 0.00 91 1012.1
20260903014118 78 111 0.0 1.0 0.00 0.00 0.00 91 1012.3
20260903013613 77 134 0.0 0.0 0.00 0.00 0.00 91 1012.6
20260903013107 77 152 1.0 1.0 0.00 0.00 0.00 91 1012.1
20260903012607 77 154 0.0 0.0 0.00 0.00 0.00 91 1011.7
20260903012106 77 190 4.0 6.0 0.00 0.00 0.00 91 1011.8
20260903011606 78 151 1.0 1.0 0.00 0.00 0.00 91 1011.7
20260903011105 78 29 1.0 1.0 0.00 0.00 0.00 91 1011.8
20260903010601 78 134 1.0 1.0 0.00 0.00 0.00 92 1011.7
20260903010059 78 157 0.0 1.0 0.00 0.00 0.00 92 1011.8
20260903005554 78 140 0.0 1.0 0.00 0.00 0.00 92 1011.5
20260903005050 78 136 0.0 0.0 0.00 0.00 0.00 91 1011.5
20260903004544 78 98 4.0 5.0 0.00 0.00 0.00 91 1010.9
20260903004040 78 122 0.0 0.0 0.00 0.00 0.00 91 1010.6
20260903003535 78 126 0.0 0.0 0.00 0.00 0.00 91 1010.6
20260903003030 79 118 5.0 6.0 0.00 0.00 0.00 91 1010.8
20260903002531 79 64 5.0 7.0 0.00 0.00 0.00 91 1011.2
20260903002025 80 70 3.0 5.0 0.00 0.00 0.00 90 1011.5
20260903001520 80 151 1.0 2.0 0.00 0.00 0.00 90 1011.4
20260903001019 80 128 2.0 2.0 0.00 0.00 0.00 89 1011.2
20260903000515 80 168 0.0 1.0 0.00 0.00 0.00 88 1011.0
20260903000014 81 99 1.0 2.0 0.00 0.00 0.00 87 1010.7
20260902235508 81 166 0.0 0.0 0.00 0.00 0.00 86 1011.2
20260902235003 81 162 0.0 0.0 0.00 0.00 0.00 86 1011.2
20260902234457 81 105 2.0 2.0 0.00 0.00 0.00 86 1011.2
20260902233956 81 37 4.0 6.0 0.00 0.00 0.00 86 1010.9
20260902233456 81 119 3.0 5.0 0.00 0.00 0.00 85 1011.0
20260902232950 81 168 0.0 1.0 0.00 0.00 0.00 85 1010.8
20260902232445 81 7 0.0 1.0 0.00 0.00 0.00 85 1010.6
20260902231944 82 163 0.0 1.0 0.00 0.00 0.00 85 1010.9
20260902231439 82 156 0.0 1.0 0.00 0.00 0.00 84 1011.2
20260902230934 83 186 0.0 0.0 0.00 0.00 0.00 83 1011.2
20260902230434 83 145 0.0 0.0 0.00 0.00 0.00 82 1011.3
20260902225928 83 162 0.0 0.0 0.00 0.00 0.00 82 1011.1
20260902225423 83 121 0.0 1.0 0.00 0.00 0.00 83 1011.0
20260902224922 83 160 2.0 5.0 0.00 0.00 0.00 82 1010.9
20260902224422 83 150 1.0 1.0 0.00 0.00 0.00 81 1010.5
20260902223919 82 208 2.0 5.0 0.00 0.00 0.00 82 1010.7
20260902223418 82 148 0.0 0.0 0.00 0.00 0.00 82 1010.6
20260902222913 82 251 3.0 5.0 0.00 0.00 0.00 82 1010.6
20260902222411 83 221 2.0 2.0 0.00 0.00 0.00 82 1010.9
20260902221911 83 158 1.0 2.0 0.00 0.00 0.00 81 1010.6
20260902221410 84 355 3.0 6.0 0.00 0.00 0.00 79 1010.4
20260902220906 85 269 2.0 2.0 0.00 0.00 0.00 77 1010.4
20260902220405 86 202 3.0 3.0 0.00 0.00 0.00 75 1010.6
20260902215901 88 78 0.0 1.0 0.00 0.00 0.00 73 1010.5
20260902215356 89 179 2.0 5.0 0.00 0.00 0.00 69 1010.4
20260902214853 89 158 1.0 2.0 0.00 0.00 0.00 69 1010.3
20260902214351 88 88 0.0 1.0 0.00 0.00 0.00 70 1010.2
20260902213846 89 169 0.0 1.0 0.00 0.00 0.00 70 1010.0
20260902213342 89 167 0.0 0.0 0.00 0.00 0.00 70 1010.0
20260902212840 89 181 0.0 0.0 0.00 0.00 0.00 70 1009.8
20260902212337 89 157 0.0 0.0 0.00 0.00 0.00 70 1010.1
20260902211833 89 189 0.0 0.0 0.00 0.00 0.00 70 1010.1
20260902211328 90 142 2.0 3.0 0.00 0.00 0.00 69 1010.0
20260902210823 91 168 0.0 0.0 0.00 0.00 0.00 69 1010.2
20260902210323 91 148 2.0 2.0 0.00 0.00 0.00 68 1010.1
20260902205821 92 178 2.0 2.0 0.00 0.00 0.00 67 1010.2
20260902205316 93 193 2.0 3.0 0.00 0.00 0.00 65 1010.2
20260902204812 93 208 3.0 3.0 0.00 0.00 0.00 64 1010.4
20260902204307 93 163 2.0 3.0 0.00 0.00 0.00 64 1010.3
20260902203802 93 259 3.0 3.0 0.00 0.00 0.00 63 1010.3
20260902203257 93 195 3.0 3.0 0.00 0.00 0.00 62 1010.4
20260902202751 93 194 1.0 1.0 0.00 0.00 0.00 62 1010.1
20260902202248 94 262 2.0 3.0 0.00 0.00 0.00 61 1010.4
20260902201744 94 227 4.0 7.0 0.00 0.00 0.00 60 1010.2
20260902201244 95 193 2.0 2.0 0.00 0.00 0.00 59 1010.5
20260902200739 96 132 2.0 2.0 0.00 0.00 0.00 59 1010.5
20260902200234 95 157 1.0 1.0 0.00 0.00 0.00 59 1010.5
20260902195730 96 151 3.0 5.0 0.00 0.00 0.00 57 1010.3
20260902195229 96 182 3.0 5.0 0.00 0.00 0.00 58 1010.4
20260902194729 96 183 2.0 2.0 0.00 0.00 0.00 59 1010.3
20260902194224 96 219 5.0 7.0 0.00 0.00 0.00 57 1010.6
20260902193719 97 210 2.0 2.0 0.00 0.00 0.00 57 1010.8
20260902193215 96 254 2.0 3.0 0.00 0.00 0.00 56 1011.0
20260902192713 96 171 3.0 5.0 0.00 0.00 0.00 57 1011.0
20260902192213 96 153 2.0 2.0 0.00 0.00 0.00 60 1010.7
20260902191712 97 163 1.0 1.0 0.00 0.00 0.00 59 1011.1
20260902191207 96 273 4.0 6.0 0.00 0.00 0.00 59 1011.1
20260902190703 96 160 1.0 3.0 0.00 0.00 0.00 60 1011.3
20260902190157 96 132 0.0 0.0 0.00 0.00 0.00 60 1011.5
20260902185653 95 168 0.0 0.0 0.00 0.00 0.00 64 1011.3
20260902185149 95 254 4.0 5.0 0.00 0.00 0.00 62 1011.6
20260902184649 94 180 0.0 0.0 0.00 0.00 0.00 65 1011.7
20260902184145 92 165 2.0 2.0 0.00 0.00 0.00 67 1011.8
20260902183641 92 144 0.0 0.0 0.00 0.00 0.00 68 1011.8
20260902183137 93 194 2.0 2.0 0.00 0.00 0.00 68 1011.8
20260902182633 94 175 2.0 2.0 0.00 0.00 0.00 66 1012.2
20260902182129 93 149 0.0 0.0 0.00 0.00 0.00 67 1012.0
20260902181625 93 184 0.0 1.0 0.00 0.00 0.00 67 1012.3
20260902181124 91 261 4.0 5.0 0.00 0.00 0.00 68 1012.7
20260902180619 91 211 1.0 2.0 0.00 0.00 0.00 69 1012.5
20260902180116 91 193 3.0 5.0 0.00 0.00 0.00 68 1012.6
20260902175614 91 206 3.0 3.0 0.00 0.00 0.00 69 1012.8
20260902175110 90 219 1.0 2.0 0.00 0.00 0.00 70 1013.0
20260902174606 90 173 1.0 2.0 0.00 0.00 0.00 70 1012.9
20260902174102 90 257 5.0 6.0 0.00 0.00 0.00 71 1013.3
20260902173602 91 155 1.0 1.0 0.00 0.00 0.00 70 1013.4
20260902173057 91 279 2.0 5.0 0.00 0.00 0.00 70 1013.7
20260902172551 89 209 3.0 3.0 0.00 0.00 0.00 72 1013.5
20260902172046 88 270 5.0 8.0 0.00 0.00 0.00 72 1013.4
20260902171541 88 256 5.0 8.0 0.00 0.00 0.00 72 1013.5
20260902171037 88 220 2.0 2.0 0.00 0.00 0.00 73 1013.6
20260902170532 88 219 5.0 7.0 0.00 0.00 0.00 73 1013.9
20260902170028 88 234 4.0 5.0 0.00 0.00 0.00 73 1014.0
20260902165522 87 264 6.0 8.0 0.00 0.00 0.00 73 1014.0
20260902165022 87 227 5.0 6.0 0.00 0.00 0.00 74 1013.9
20260902164517 87 231 5.0 7.0 0.00 0.00 0.00 73 1013.7
20260902164015 87 275 8.0 9.0 0.00 0.00 0.00 75 1014.1
20260902163512 87 155 3.0 3.0 0.00 0.00 0.00 76 1014.2
20260902163009 86 248 5.0 8.0 0.00 0.00 0.00 76 1014.0
20260902162504 86 255 3.0 5.0 0.00 0.00 0.00 77 1014.3
20260902161959 86 215 3.0 3.0 0.00 0.00 0.00 77 1014.0
20260902161454 86 190 2.0 2.0 0.00 0.00 0.00 77 1014.0
20260902160949 86 237 5.0 7.0 0.00 0.00 0.00 77 1014.1
20260902160445 85 254 4.0 5.0 0.00 0.00 0.00 78 1013.8
20260902155943 84 278 5.0 7.0 0.00 0.00 0.00 79 1013.9
20260902155439 84 250 4.0 6.0 0.00 0.00 0.00 80 1014.2
20260902154932 84 188 4.0 6.0 0.00 0.00 0.00 80 1014.0
20260902154428 84 253 6.0 7.0 0.00 0.00 0.00 81 1013.8
20260902153927 83 265 5.0 6.0 0.00 0.00 0.00 81 1014.0
20260902153426 83 199 2.0 2.0 0.00 0.00 0.00 81 1013.9
20260902152922 83 267 3.0 6.0 0.00 0.00 0.00 81 1014.0
20260902152418 83 197 4.0 5.0 0.00 0.00 0.00 81 1013.8
20260902151913 83 255 5.0 7.0 0.00 0.00 0.00 82 1014.0
20260902151409 82 248 3.0 5.0 0.00 0.00 0.00 82 1014.2
20260902150903 83 160 5.0 7.0 0.00 0.00 0.00 82 1014.1
20260902150359 82 197 4.0 6.0 0.00 0.00 0.00 82 1013.7
20260902145858 82 259 5.0 6.0 0.00 0.00 0.00 82 1014.0
20260902145354 82 171 3.0 3.0 0.00 0.00 0.00 82 1013.8
20260902144849 82 267 6.0 7.0 0.00 0.00 0.00 82 1013.7
20260902144345 82 250 5.0 6.0 0.00 0.00 0.00 82 1013.6
20260902143845 82 278 8.0 10.0 0.00 0.00 0.00 83 1013.9
20260902143339 82 268 7.0 9.0 0.00 0.00 0.00 83 1013.9
20260902142836 82 231 3.0 3.0 0.00 0.00 0.00 83 1013.8
20260902142331 82 260 7.0 11.0 0.00 0.00 0.00 83 1013.9
20260902141826 81 191 3.0 5.0 0.00 0.00 0.00 83 1013.8
20260902141322 81 214 4.0 5.0 0.00 0.00 0.00 83 1013.8
20260902140821 81 221 5.0 7.0 0.00 0.00 0.00 83 1013.9
20260902140317 82 181 3.0 3.0 0.00 0.00 0.00 83 1013.8
20260902135815 81 199 2.0 3.0 0.00 0.00 0.00 83 1013.7
20260902135312 81 275 7.0 8.0 0.00 0.00 0.00 83 1013.6
20260902134811 82 247 4.0 6.0 0.00 0.00 0.00 83 1013.7
20260902134307 82 251 6.0 7.0 0.00 0.00 0.00 82 1013.7
20260902133802 82 161 1.0 2.0 0.00 0.00 0.00 83 1013.6
20260902133301 82 192 3.0 5.0 0.00 0.00 0.00 83 1013.4
20260902132756 82 266 4.0 5.0 0.00 0.00 0.00 83 1013.7
20260902132252 82 267 3.0 5.0 0.00 0.00 0.00 82 1013.7
20260902131747 82 198 1.0 2.0 0.00 0.00 0.00 82 1013.6
20260902131244 82 204 1.0 2.0 0.00 0.00 0.00 82 1013.3
20260902130743 82 237 3.0 3.0 0.00 0.00 0.00 82 1013.6
20260902130239 82 265 6.0 7.0 0.00 0.00 0.00 82 1013.4
20260902125734 82 271 7.0 11.0 0.00 0.00 0.00 82 1013.2
20260902125230 82 293 9.0 10.0 0.00 0.00 0.00 82 1013.3
20260902124726 82 255 6.0 7.0 0.00 0.00 0.00 82 1013.1
20260902124222 82 241 6.0 8.0 0.00 0.00 0.00 82 1013.0
20260902123717 82 190 3.0 5.0 0.00 0.00 0.00 82 1012.7
20260902123213 82 231 4.0 5.0 0.00 0.00 0.00 82 1012.7
20260902122711 82 267 6.0 9.0 0.00 0.00 0.00 82 1012.3
20260902122208 82 214 4.0 5.0 0.00 0.00 0.00 82 1012.2
20260902121702 82 263 6.0 8.0 0.00 0.00 0.00 82 1012.2
20260902121156 82 275 6.0 8.0 0.00 0.00 0.00 82 1012.0
20260902120653 82 268 7.0 9.0 0.00 0.00 0.00 82 1012.2
20260902120149 82 265 9.0 10.0 0.00 0.00 0.00 82 1011.9
20260902115648 82 307 10.0 11.0 0.00 0.00 0.00 82 1011.9
20260902115145 82 259 8.0 9.0 0.00 0.00 0.00 82 1012.0
20260902114640 82 252 5.0 7.0 0.00 0.00 0.00 82 1012.0
20260902114135 82 263 5.0 6.0 0.00 0.00 0.00 81 1011.9
20260902113631 81 238 4.0 6.0 0.00 0.00 0.00 81 1011.9
20260902113126 82 310 4.0 7.0 0.00 0.00 0.00 81 1012.0
20260902112620 81 271 8.0 9.0 0.00 0.00 0.00 81 1011.8
20260902112118 81 296 6.0 8.0 0.00 0.00 0.00 81 1011.6
20260902111608 81 259 8.0 11.0 0.00 0.00 0.00 81 1011.8
20260902111103 81 229 5.0 7.0 0.00 0.00 0.00 80 1011.8
20260902110559 81 283 8.0 13.0 0.00 0.00 0.00 80 1011.8
20260902110055 81 264 6.0 7.0 0.00 0.00 0.00 80 1011.7
20260902105549 81 283 4.0 5.0 0.00 0.00 0.00 80 1011.6
20260902105049 81 253 3.0 5.0 0.00 0.00 0.00 79 1011.4
20260902104545 82 248 4.0 7.0 0.00 0.00 0.00 79 1011.4
20260902104039 82 307 7.0 11.0 0.00 0.00 0.00 78 1011.6
20260902103534 82 260 6.0 8.0 0.00 0.00 0.00 78 1011.8
20260902103029 82 190 4.0 7.0 0.00 0.00 0.00 78 1011.7
20260902102526 82 263 7.0 8.0 0.00 0.00 0.00 78 1012.0
20260902102023 81 265 6.0 9.0 0.00 0.00 0.00 78 1011.6
20260902101518 81 270 3.0 5.0 0.00 0.00 0.00 79 1011.9
20260902101017 81 188 3.0 3.0 0.00 0.00 0.00 80 1011.9
20260902100512 81 274 3.0 3.0 0.00 0.00 0.00 80 1011.9
20260902100012 81 278 5.0 8.0 0.00 0.00 0.00 80 1012.2
20260902095511 81 256 4.0 6.0 0.00 0.00 0.00 80 1011.9
20260902095010 81 248 1.0 2.0 0.00 0.00 0.00 80 1012.1
20260902094506 81 234 3.0 3.0 0.00 0.00 0.00 80 1012.2
20260902094001 81 285 3.0 5.0 0.00 0.00 0.00 80 1011.9
20260902093456 81 237 4.0 6.0 0.00 0.00 0.00 80 1011.7
20260902092955 81 259 7.0 9.0 0.00 0.00 0.00 80 1011.6
20260902092451 81 270 6.0 8.0 0.00 0.00 0.00 80 1011.7
20260902091950 81 195 1.0 1.0 0.00 0.00 0.00 80 1011.9
20260902091446 81 273 6.0 7.0 0.00 0.00 0.00 80 1011.7
20260902090942 81 277 6.0 7.0 0.00 0.00 0.00 80 1011.7
20260902090437 81 254 6.0 8.0 0.00 0.00 0.00 80 1011.4
20260902085936 81 240 4.0 5.0 0.00 0.00 0.00 79 1011.7
20260902085431 82 269 6.0 7.0 0.00 0.00 0.00 79 1011.8
20260902084927 81 266 5.0 7.0 0.00 0.00 0.00 79 1011.8
20260902084423 81 251 0.0 1.0 0.00 0.00 0.00 80 1011.8
20260902083919 81 259 5.0 6.0 0.00 0.00 0.00 80 1011.8
20260902083418 81 247 4.0 6.0 0.00 0.00 0.00 81 1011.8
20260902082913 81 265 3.0 5.0 0.00 0.00 0.00 81 1012.0
20260902082409 81 257 3.0 5.0 0.00 0.00 0.00 81 1011.9
20260902081906 81 258 5.0 6.0 0.00 0.00 0.00 82 1011.9
20260902081401 80 279 8.0 9.0 0.00 0.00 0.00 82 1011.6
20260902080856 80 253 7.0 8.0 0.00 0.00 0.00 82 1011.6
20260902080353 80 219 5.0 6.0 0.00 0.00 0.00 82 1011.7
20260902075852 80 258 6.0 7.0 0.00 0.00 0.00 82 1011.6
20260902075348 80 254 5.0 7.0 0.00 0.00 0.00 82 1012.0
20260902074843 80 209 3.0 3.0 0.00 0.00 0.00 83 1012.0
20260902074339 80 266 8.0 9.0 0.00 0.00 0.00 83 1011.9
20260902073833 80 246 4.0 5.0 0.00 0.00 0.00 83 1011.9
20260902073330 80 258 5.0 7.0 0.00 0.00 0.00 83 1012.1
20260902072826 80 148 4.0 5.0 0.00 0.00 0.00 84 1012.1
20260902072321 80 256 8.0 9.0 0.00 0.00 0.00 83 1012.0
20260902071818 80 205 4.0 6.0 0.00 0.00 0.00 84 1012.0
20260902071312 80 263 3.0 3.0 0.00 0.00 0.00 83 1011.8
20260902070809 80 262 7.0 8.0 0.00 0.00 0.00 84 1011.8
20260902070308 80 248 5.0 8.0 0.00 0.00 0.00 84 1012.1
20260902065807 80 187 3.0 5.0 0.00 0.00 0.00 83 1012.2
20260902065306 80 230 3.0 5.0 0.00 0.00 0.00 83 1012.1
20260902064758 80 317 6.0 8.0 0.00 0.00 0.00 84 1012.1
20260902064254 80 228 1.0 2.0 0.00 0.00 0.00 84 1012.3
20260902063749 80 187 0.0 2.0 0.00 0.00 0.00 84 1012.2
20260902063244 80 253 7.0 9.0 0.00 0.00 0.00 84 1011.8
20260902062743 80 244 1.0 2.0 0.00 0.00 0.00 84 1012.0
20260902062238 80 195 4.0 6.0 0.00 0.00 0.00 84 1012.2
20260902061737 80 235 5.0 7.0 0.00 0.00 0.00 84 1012.0
20260902061232 80 194 0.0 1.0 0.00 0.00 0.00 85 1012.0
20260902060730 80 267 3.0 6.0 0.00 0.00 0.00 85 1012.3
20260902060225 79 201 4.0 5.0 0.00 0.00 0.00 85 1012.2
20260902055720 79 261 4.0 6.0 0.00 0.00 0.00 85 1012.1
20260902055216 79 168 1.0 3.0 0.00 0.00 0.00 85 1012.0
20260902054712 80 251 3.0 3.0 0.00 0.00 0.00 85 1011.8
20260902054207 80 228 1.0 2.0 0.00 0.00 0.00 85 1011.9
20260902053702 80 166 0.0 0.0 0.00 0.00 0.00 85 1012.0
20260902053202 80 274 1.0 2.0 0.00 0.00 0.00 85 1012.0
20260902052701 79 296 3.0 3.0 0.00 0.00 0.00 85 1011.9
20260902052157 80 150 0.0 0.0 0.00 0.00 0.00 86 1011.8
20260902051655 80 157 0.0 0.0 0.00 0.00 0.00 85 1012.1
20260902051150 80 237 2.0 3.0 0.00 0.00 0.00 85 1012.0
20260902050645 80 201 0.0 1.0 0.00 0.00 0.00 84 1012.1
20260902050141 80 195 0.0 0.0 0.00 0.00 0.00 85 1012.1
20260902045635 80 278 0.0 1.0 0.00 0.00 0.00 85 1012.3
20260902045132 79 191 0.0 0.0 0.00 0.00 0.00 86 1012.5
20260902044626 79 169 0.0 1.0 0.00 0.00 0.00 86 1012.5
20260902044122 79 302 0.0 2.0 0.00 0.00 0.00 87 1012.3
20260902043616 79 185 0.0 1.0 0.00 0.00 0.00 89 1012.2
20260902043112 78 172 2.0 2.0 0.00 0.00 0.00 90 1012.1
20260902042606 78 163 1.0 1.0 0.00 0.00 0.00 91 1012.0
20260902042102 78 205 0.0 1.0 0.00 0.00 0.00 91 1012.0
20260902041601 77 161 0.0 0.0 0.00 0.00 0.00 92 1012.0
20260902041055 77 157 0.0 0.0 0.00 0.00 0.00 92 1012.2
20260902040550 77 152 0.0 0.0 0.00 0.00 0.00 92 1012.0
20260902040045 77 151 0.0 0.0 0.00 0.00 0.00 93 1012.1
20260902035543 77 196 0.0 0.0 0.00 0.00 0.00 93 1012.1
20260902035039 77 154 0.0 0.0 0.00 0.00 0.00 93 1012.1